Wind_Speed
48 45 38 42 45 25 47 48 46 41 39 38 40 40 39 35 30 25 21 23 23 21 20 21 24 23 23 19 15 18 22 22 20 22 18 13 9 7 5 9 8 9 11
44 45 41 29 41 46 54 52 51 44 43 43 40 40 38 33 28 24 20 22 25 24 23 24 25 24 25 21 18 19 23 22 22 23 23 13 11 7 2 5 7 8 9
42 43 38 36 38 56 61 57 57 50 47 45 41 38 35 32 29 26 23 27 26 26 25 24 25 26 22 23 20 18 20 25 22 19 10 12 7 14 9 4 5 7 7
45 49 42 41 43 53 66 60 60 56 51 45 44 43 40 39 36 30 26 28 30 29 26 26 23 23 21 22 21 16 16 21 23 17 11 6 6 10 12 10 7 5 7
45 42 49 47 45 45 47 48 59 58 51 47 46 45 43 42 35 29 26 28 32 30 29 27 25 27 23 19 21 19 19 21 24 18 11 7 9 9 10 17 15 10 7
46 48 47 42 42 42 46 45 55 56 53 49 47 45 42 41 36 32 29 30 33 34 30 27 28 26 27 23 19 17 20 22 23 17 12 13 15 15 11 9 17 11 9
49 48 45 45 41 46 60 60 57 59 53 51 48 44 41 39 36 35 32 33 36 38 35 31 34 28 25 22 20 20 23 25 20 17 16 17 14 13 13 12 18 17 13
52 52 52 52 43 48 47 60 64 57 54 52 46 43 38 37 33 32 31 32 35 35 34 34 35 27 24 22 21 24 24 26 23 19 20 18 17 15 16 14 15 16 14
51 57 54 49 52 33 48 52 60 58 58 53 46 43 39 36 31 30 29 31 33 33 33 33 32 28 27 23 22 26 27 26 25 21 21 22 21 20 20 19 17 15 16
51 52 50 53 45 31 43 51 64 62 58 52 47 44 39 36 31 29 30 31 33 33 34 33 32 29 27 24 21 26 28 27 27 26 25 24 22 19 19 18 16 15 12
41 47 48 48 49 45 45 36 51 59 57 52 48 45 42 37 32 29 29 32 33 33 34 32 32 29 28 26 22 25 29 29 29 29 28 27 25 21 19 18 18 18 17
49 50 48 48 50 47 44 43 36 56 60 56 50 47 44 37 33 30 30 32 32 32 32 31 31 30 28 26 24 25 26 25 28 27 27 27 24 22 20 21 22 21 22
36 37 40 45 48 50 48 44 39 43 60 57 52 47 43 39 35 33 31 33 32 30 30 30 30 31 29 27 25 25 24 24 25 24 24 24 23 21 19 19 20 18 17
24 42 42 44 51 45 45 39 41 53 58 58 53 47 43 40 37 34 33 33 30 29 30 28 29 29 29 28 27 27 26 26 26 24 23 23 21 19 18 18 17 15 15
7 10 24 41 45 44 41 27 44 51 57 57 52 48 44 40 38 36 36 33 29 29 26 26 27 28 27 26 27 26 26 26 25 24 23 22 20 18 17 16 15 15 14
24 2 4 17 33 45 35 31 43 48 55 50 49 49 45 44 41 39 38 33 31 30 28 28 28 28 27 25 25 25 25 25 25 24 24 23 21 20 18 17 16 15 14
26 14 14 10 15 25 38 37 41 46 51 47 48 47 45 47 43 41 38 35 33 32 31 30 28 28 27 24 25 24 24 25 24 23 23 23 22 21 20 18 17 16 16
27 18 11 12 22 25 28 31 42 38 32 42 45 46 45 46 45 42 40 37 35 34 33 31 29 28 27 25 25 24 25 25 23 23 23 22 21 21 20 19 19 18 17
24 20 12 9 5 24 29 34 32 46 47 50 51 47 47 45 42 42 41 40 38 37 35 33 31 30 28 27 26 26 27 26 25 24 24 24 23 21 21 22 21 20 19
26 23 14 1 2 13 21 33 38 34 48 50 49 42 44 41 39 43 43 41 38 37 34 33 32 30 29 29 28 28 28 28 27 27 26 26 25 23 24 24 23 23 21
29 25 23 18 7 12 22 32 35 37 37 46 49 43 42 42 38 39 39 40 38 36 35 34 33 32 31 30 29 30 29 28 28 30 29 28 26 25 26 26 26 22 20
39 33 30 28 20 9 11 15 22 25 31 38 38 42 34 36 37 38 40 37 37 37 35 34 35 34 31 30 31 32 30 28 29 31 28 25 24 25 25 27 26 24 24
42 42 38 35 12 19 17 13 9 19 27 31 33 38 43 33 38 36 34 35 35 36 37 38 37 37 34 32 31 31 32 31 31 31 28 24 24 24 25 26 26 27 28
45 43 41 43 40 33 27 30 8 4 12 25 33 39 47 36 35 36 35 34 36 37 39 40 40 39 35 33 33 33 33 33 34 33 30 28 26 26 26 27 27 29 30
44 45 42 42 41 33 26 23 19 21 11 8 28 42 40 37 39 36 34 35 28 30 34 37 37 36 35 34 32 32 34 34 35 34 34 33 33 32 32 31 30 30 30
43 45 45 43 39 33 30 24 21 22 18 15 14 6 27 34 34 31 30 29 22 22 24 24 27 27 25 23 23 25 26 28 30 34 39 39 37 37 36 35 33 32 32
Wind_Direction
202 196 190 192 231 237 192 189 181 184 181 184 177 176 177 181 184 187 187 194 184 178 176 174 178 192 189 186 185 167 164 162 157 143 131 116 92 75 47 35 34 36 24
203 205 202 212 240 244 199 194 185 184 184 180 183 182 180 181 187 188 199 206 197 185 182 182 182 190 185 189 187 180 167 166 165 155 136 141 147 166 171 1 0 4 8
199 191 195 193 222 222 203 196 185 186 186 186 186 186 183 181 183 189 193 194 197 193 189 187 183 186 194 194 195 188 182 169 171 172 157 148 167 171 181 203 307 333 341
201 191 191 189 198 197 203 196 187 189 191 188 191 193 188 184 196 193 189 190 196 197 188 186 187 188 191 200 198 197 195 187 173 171 169 170 218 168 175 197 230 281 312
195 182 191 198 205 199 212 197 185 189 191 191 196 196 196 200 198 196 193 189 192 199 190 192 196 193 197 206 203 200 203 199 187 179 174 181 191 185 177 190 199 218 242
200 197 196 197 198 205 219 219 188 188 191 192 197 199 200 199 200 199 197 192 191 194 194 197 196 196 205 212 209 209 205 199 201 206 191 204 197 206 210 201 196 208 216
192 193 192 185 185 202 198 207 190 188 191 195 198 201 205 206 203 201 196 193 190 194 196 199 195 195 200 207 211 213 204 196 197 204 209 208 220 226 214 225 195 196 205
189 193 197 201 200 190 204 194 193 191 192 196 197 203 205 200 200 202 198 197 193 194 194 195 199 197 200 208 212 203 200 191 192 203 209 219 219 226 233 234 217 195 207
183 195 199 184 187 195 206 196 193 192 192 195 197 201 199 201 203 202 200 197 193 195 196 195 197 199 205 208 205 202 201 200 204 214 220 223 230 238 247 250 240 231 212
194 194 191 197 189 191 199 195 190 193 193 194 197 199 200 204 206 199 196 195 193 196 198 198 202 205 207 208 204 203 205 208 212 218 224 228 235 243 241 240 233 233 239
192 193 184 195 195 192 200 197 197 192 193 194 195 198 199 204 203 199 196 195 195 193 198 203 208 211 210 210 209 203 209 213 220 225 230 236 239 239 238 229 225 232 240
194 198 185 182 184 189 195 192 207 190 193 194 195 198 200 201 199 199 199 196 197 196 199 205 210 214 214 215 215 212 213 217 220 226 232 234 233 230 225 223 229 236 245
176 177 173 178 189 192 196 194 209 219 200 196 196 197 201 199 200 201 199 198 199 201 204 207 209 212 216 221 221 222 223 226 228 230 234 232 226 222 217 217 222 225 231
173 170 173 178 186 189 197 199 199 202 202 196 198 197 200 201 203 204 203 201 201 205 205 203 205 208 212 215 218 220 223 225 228 228 228 225 223 219 217 218 224 224 225
85 168 173 180 185 185 184 196 207 206 198 194 198 203 202 204 206 207 205 204 202 208 205 206 206 209 210 211 212 214 218 219 219 216 219 220 220 218 219 221 227 228 227
25 99 173 175 189 199 208 191 192 201 202 200 201 202 205 205 207 209 207 204 206 208 207 209 210 209 211 211 213 215 217 217 217 216 218 219 220 219 219 218 219 231 238
6 49 42 223 214 208 197 194 206 201 199 201 202 206 208 208 208 209 208 208 209 210 210 211 211 214 215 214 215 215 217 219 220 220 223 221 220 221 222 220 221 224 232
18 40 53 57 210 214 200 198 202 201 199 209 206 209 211 210 208 208 209 211 212 212 215 214 215 217 217 216 219 217 218 221 222 225 225 227 227 226 227 226 228 229 232
21 25 11 10 157 223 213 203 195 205 202 204 208 207 208 208 210 209 211 214 214 214 217 218 218 219 219 218 220 220 219 222 223 224 224 226 227 228 230 230 231 235 238
29 28 55 197 122 242 219 206 201 194 201 211 216 209 210 213 221 215 214 216 218 219 219 220 222 224 224 222 223 224 223 223 224 225 225 227 228 229 233 235 237 240 244
37 45 52 67 48 170 212 214 212 212 201 200 210 209 210 214 217 220 218 220 220 222 223 224 225 226 225 225 225 228 227 228 229 229 228 227 227 229 232 236 239 245 247
44 50 54 57 58 102 126 161 190 196 200 209 208 207 212 215 222 221 222 222 224 226 225 226 227 229 226 227 229 232 235 234 236 237 235 234 233 236 236 237 240 239 238
41 44 51 55 84 42 33 39 134 195 207 204 202 198 210 223 224 224 222 219 222 225 227 228 229 229 228 224 229 233 237 238 239 243 242 240 240 240 242 242 241 241 241
36 40 42 46 51 53 44 38 65 280 199 217 206 193 219 215 222 219 220 218 222 223 227 228 229 231 231 230 228 230 232 237 241 244 242 239 241 243 246 246 244 244 246
42 41 40 41 43 44 46 40 38 56 62 139 211 215 213 217 214 216 218 217 221 233 234 233 231 233 235 236 232 234 234 236 238 242 242 239 238 240 242 242 243 246 248
35 38 40 40 40 39 43 47 42 46 48 44 44 232 208 211 214 217 218 222 226 235 240 240 242 243 242 239 239 242 242 242 243 243 244 242 241 244 246 247 248 249 251
Height
1468 1471 1478 1487 1500 1504 1508 1513 1514 1521 1525 1530 1533 1538 1543 1549 1554 1558 1561 1564 1566 1567 1571 1574 1577 1580 1583 1587 1590 1590 1593 1597 1599 1600 1604 1606 1607 1608 1608 1608 1607 1607 1607
1462 1466 1470 1472 1490 1499 1503 1506 1510 1516 1521 1526 1532 1536 1540 1546 1552 1555 1558 1561 1563 1566 1569 1573 1575 1578 1581 1585 1588 1589 1591 1596 1599 1600 1603 1607 1610 1611 1610 1608 1608 1608 1607
1453 1458 1465 1469 1481 1491 1492 1495 1503 1510 1517 1522 1529 1534 1540 1543 1548 1551 1555 1558 1561 1564 1567 1571 1573 1576 1579 1583 1586 1588 1590 1594 1598 1600 1600 1605 1607 1610 1612 1610 1609 1608 1608
1449 1448 1454 1457 1466 1460 1480 1479 1493 1504 1513 1520 1524 1527 1530 1535 1541 1546 1552 1556 1558 1562 1566 1569 1572 1574 1578 1582 1585 1588 1590 1593 1595 1599 1600 1601 1603 1606 1610 1611 1610 1609 1609
1444 1447 1449 1453 1451 1465 1477 1473 1485 1497 1508 1515 1519 1523 1528 1533 1539 1543 1548 1553 1555 1559 1563 1567 1570 1573 1577 1581 1584 1587 1590 1593 1596 1597 1599 1600 1601 1603 1603 1606 1607 1608 1608
1436 1443 1446 1449 1453 1457 1465 1471 1480 1491 1503 1509 1514 1520 1524 1530 1535 1539 1543 1548 1552 1555 1559 1564 1568 1572 1576 1579 1583 1585 1588 1591 1595 1598 1599 1600 1599 1601 1602 1603 1606 1608 1607
1426 1434 1439 1445 1451 1462 1468 1471 1477 1488 1495 1503 1510 1516 1522 1527 1531 1536 1538 1543 1547 1551 1555 1559 1565 1568 1574 1578 1581 1584 1587 1589 1592 1596 1598 1599 1599 1600 1600 1601 1603 1605 1606
1416 1424 1428 1436 1444 1457 1465 1470 1477 1485 1488 1497 1505 1511 1519 1524 1528 1532 1535 1540 1544 1548 1552 1557 1562 1566 1572 1576 1578 1581 1585 1587 1590 1593 1596 1598 1598 1598 1599 1599 1600 1603 1605
1410 1417 1422 1431 1440 1443 1452 1459 1473 1478 1484 1491 1499 1506 1514 1520 1524 1529 1534 1539 1543 1546 1550 1555 1561 1565 1569 1573 1576 1578 1582 1585 1587 1591 1594 1595 1596 1596 1596 1597 1598 1599 1599
1399 1409 1416 1425 1435 1440 1447 1452 1460 1471 1480 1488 1495 1503 1510 1517 1522 1527 1531 1536 1541 1544 1548 1552 1557 1563 1566 1570 1573 1576 1580 1582 1584 1588 1590 1592 1594 1593 1593 1594 1596 1597 1598
1394 1400 1410 1417 1424 1434 1440 1444 1458 1463 1475 1485 1491 1499 1506 1513 1519 1524 1528 1533 1538 1541 1545 1549 1554 1559 1563 1566 1569 1572 1577 1578 1581 1584 1587 1589 1590 1591 1590 1591 1593 1594 1596
1385 1392 1403 1414 1422 1430 1440 1446 1453 1452 1470 1479 1487 1495 1502 1509 1515 1520 1525 1530 1536 1540 1544 1547 1551 1556 1559 1562 1565 1568 1572 1574 1577 1580 1583 1585 1586 1587 1588 1589 1590 1592 1594
1389 1396 1402 1410 1418 1427 1435 1438 1442 1455 1465 1475 1482 1491 1498 1505 1510 1516 1521 1527 1532 1536 1541 1544 1548 1552 1555 1558 1561 1565 1568 1571 1574 1576 1579 1581 1582 1584 1586 1586 1588 1590 1591
1393 1391 1400 1408 1416 1424 1430 1437 1443 1451 1461 1469 1478 1487 1494 1501 1507 1513 1518 1523 1528 1533 1536 1539 1545 1549 1552 1555 1558 1561 1565 1568 1570 1573 1575 1578 1579 1581 1583 1583 1585 1587 1588
1404 1408 1410 1408 1415 1423 1430 1432 1441 1448 1454 1462 1473 1482 1489 1498 1504 1510 1514 1520 1524 1530 1533 1537 1541 1545 1548 1551 1554 1558 1561 1564 1566 1569 1572 1575 1577 1579 1580 1582 1583 1584 1585
1412 1414 1416 1417 1422 1422 1423 1424 1428 1444 1453 1459 1469 1478 1483 1492 1498 1505 1510 1515 1520 1525 1529 1533 1537 1540 1544 1547 1551 1555 1557 1561 1563 1565 1567 1571 1574 1576 1577 1579 1580 1582 1582
1420 1417 1417 1419 1420 1424 1424 1428 1435 1442 1447 1459 1467 1473 1480 1486 1493 1500 1506 1510 1515 1521 1525 1529 1533 1536 1540 1544 1548 1551 1554 1557 1560 1562 1565 1567 1570 1572 1574 1576 1577 1578 1579
1420 1420 1423 1422 1422 1424 1430 1435 1437 1443 1448 1454 1461 1467 1475 1481 1488 1495 1501 1506 1511 1515 1520 1524 1528 1532 1536 1540 1544 1547 1551 1554 1556 1559 1561 1564 1566 1569 1571 1572 1573 1574 1576
1426 1419 1417 1421 1420 1424 1429 1432 1435 1439 1447 1449 1453 1462 1471 1476 1482 1490 1495 1501 1506 1510 1515 1520 1524 1527 1532 1536 1540 1543 1546 1549 1551 1554 1557 1559 1561 1564 1567 1568 1570 1571 1572
1428 1420 1418 1421 1418 1421 1422 1425 1430 1434 1438 1445 1451 1458 1466 1471 1476 1482 1490 1496 1502 1507 1512 1516 1520 1525 1528 1532 1535 1538 1541 1543 1546 1550 1552 1554 1557 1559 1562 1564 1565 1566 1568
1435 1428 1424 1419 1419 1416 1421 1424 1428 1433 1435 1440 1448 1456 1462 1466 1473 1480 1487 1492 1499 1504 1509 1513 1517 1521 1525 1528 1531 1533 1536 1538 1541 1545 1546 1548 1552 1554 1556 1559 1560 1563 1566
1436 1434 1429 1422 1423 1422 1419 1422 1424 1429 1434 1439 1445 1452 1457 1462 1470 1477 1482 1489 1496 1500 1505 1508 1512 1516 1520 1524 1527 1529 1531 1534 1537 1539 1542 1545 1548 1550 1552 1554 1556 1558 1560
1446 1441 1435 1431 1427 1426 1428 1422 1425 1428 1432 1436 1441 1449 1453 1458 1465 1473 1479 1484 1489 1494 1498 1502 1505 1509 1514 1518 1522 1524 1526 1529 1532 1534 1538 1542 1544 1546 1547 1548 1550 1551 1553
1452 1447 1443 1436 1434 1434 1431 1429 1427 1431 1426 1434 1439 1440 1447 1456 1461 1465 1470 1475 1481 1485 1489 1493 1496 1500 1507 1511 1515 1518 1521 1523 1526 1528 1532 1535 1538 1540 1542 1543 1543 1544 1546
1459 1455 1447 1441 1438 1441 1441 1436 1437 1434 1433 1433 1440 1439 1444 1447 1448 1460 1462 1467 1473 1478 1482 1485 1489 1494 1498 1502 1508 1512 1515 1517 1520 1523 1526 1528 1529 1531 1533 1535 1536 1538 1538
1465 1461 1458 1453 1452 1451 1446 1445 1441 1442 1440 1441 1438 1442 1441 1447 1451 1454 1458 1463 1470 1473 1477 1481 1485 1488 1493 1497 1502 1506 1509 1512 1515 1517 1516 1519 1522 1524 1526 1528 1530 1532 1532